This is the latest recevied weather packets stored in our database for station/object AC2JK-WX. If no packets are shown the sender has not sent any weather packets the latest 10 day(s).
| Time | Temp. | Humidity | Pressure | Rain* | Wind** | Luminosity | Snow |
|---|---|---|---|---|---|---|---|
| 1777739229 | 7.78° C | 51% | 1016 hPa | 0 mm | - | - | - |
| 1777738929 | 8.33° C | 52% | 1016 hPa | 0 mm | - | - | - |
| 1777738629 | 7.78° C | 55% | 1016 hPa | 0 mm | - | - | - |
| 1777738329 | 7.78° C | 53% | 1016 hPa | 0 mm | - | - | - |
| 1777738030 | 7.78° C | 54% | 1016 hPa | 0 mm | - | - | - |
| 1777737729 | 7.78° C | 53% | 1016 hPa | 0 mm | - | - | - |
| 1777737430 | 7.78° C | 48% | 1016 hPa | 0 mm | - | - | - |
| 1777737129 | 7.78° C | 50% | 1016 hPa | 0 mm | - | - | - |
| 1777736830 | 8.33° C | 48% | 1016 hPa | 0 mm | - | - | - |
| 1777736533 | 8.89° C | 48% | 1016 hPa | 0 mm | - | - | - |
| 1777736229 | 8.89° C | 47% | 1016 hPa | 0 mm | - | - | - |
| 1777735929 | 7.78° C | 47% | 1016 hPa | 0 mm | - | - | - |
| 1777735629 | 8.33° C | 49% | 1016 hPa | 0 mm | - | - | - |
| 1777735330 | 7.78° C | 50% | 1016 hPa | 0 mm | - | - | - |
| 1777735030 | 7.78° C | 46% | 1016 hPa | 0 mm | - | - | - |
| 1777734729 | 8.89° C | 48% | 1016 hPa | 0 mm | - | - | - |
| 1777734430 | 8.33° C | 47% | 1016 hPa | 0 mm | - | - | - |
| 1777734130 | 7.78° C | 48% | 1016 hPa | 0 mm | - | - | - |
| 1777733829 | 8.33° C | 45% | 1016 hPa | 0 mm | - | - | - |
| 1777733529 | 7.78° C | 48% | 1016 hPa | 0 mm | - | - | - |
| 1777733229 | 7.22° C | 48% | 1016 hPa | 0 mm | - | - | - |
| 1777732929 | 7.22° C | 49% | 1016 hPa | 0 mm | - | - | - |
| 1777732630 | 7.22° C | 48% | 1016 hPa | 0 mm | - | - | - |
| 1777732329 | 7.22° C | 46% | 1016 hPa | 0 mm | - | - | - |
| 1777732029 | 7.22° C | 52% | 1016 hPa | 0 mm | - | - | - |
* Rain latest hour (hover to see other rain measurements)
** Current wind speed in m/s (hover to see current wind gust speed)